GW6369 Weather Reports


time (UTC)temp
C
wind
direction
speed
KPH
gust
KPH
rain 1hr
cm
rain 24hr
cm
rain mn
cm
humidity
%
barometer
mb
20260506143104 14 164 17.7 25.7 0.00 0.00 0.00 85 1010.0
20260506142601 14 196 9.7 14.5 0.00 0.00 0.00 85 1010.1
20260506142059 14 245 3.2 4.8 0.00 0.00 0.00 85 1010.3
20260506141557 15 206 16.1 24.1 0.00 0.00 0.00 84 1010.2
20260506141055 15 194 3.2 4.8 0.00 0.00 0.00 84 1010.2
20260506140552 15 246 11.3 20.9 0.00 0.00 0.00 84 1010.3
20260506140049 15 207 9.7 12.9 0.00 0.00 0.00 83 1010.2
20260506135546 15 220 3.2 4.8 0.00 0.00 0.00 83 1010.4
20260506135042 15 216 11.3 20.9 0.00 0.00 0.00 83 1010.4
20260506134539 15 219 11.3 14.5 0.00 0.00 0.00 85 1010.4
20260506134035 14 247 4.8 6.4 0.00 0.00 0.00 86 1010.3
20260506133532 14 174 4.8 6.4 0.00 0.00 0.00 85 1010.4
20260506133029 15 171 14.5 20.9 0.00 0.00 0.00 85 1010.5
20260506132526 15 156 4.8 11.3 0.00 0.00 0.00 85 1010.1
20260506132024 15 259 9.7 20.9 0.00 0.00 0.00 85 1010.2
20260506131520 14 316 6.4 9.7 0.00 0.00 0.00 86 1010.2
20260506131017 14 184 14.5 20.9 0.00 0.00 0.00 86 1010.4
20260506130514 13 192 9.7 16.1 0.00 0.00 0.00 87 1010.2
20260506130011 13 121 3.2 3.2 0.00 0.00 0.00 87 1010.3
20260506125509 13 59 4.8 6.4 0.00 0.00 0.00 87 1010.4
20260506125007 14 212 3.2 9.7 0.00 0.00 0.00 86 1010.3
20260506124504 14 204 9.7 14.5 0.00 0.00 0.00 86 1010.2
20260506124002 14 294 8.0 12.9 0.00 0.00 0.00 86 1010.2
20260506123500 15 281 4.8 6.4 0.00 0.00 0.00 85 1010.3
20260506122958 15 204 6.4 9.7 0.00 0.00 0.00 85 1010.4
20260506122454 15 161 8.0 14.5 0.00 0.00 0.00 85 1010.4
20260506121953 15 86 9.7 12.9 0.00 0.00 0.00 85 1010.4
20260506121449 15 172 6.4 12.9 0.00 0.00 0.00 86 1010.5
20260506120946 15 194 6.4 12.9 0.00 0.00 0.00 86 1010.6
20260506120443 14 221 12.9 17.7 0.00 0.00 0.00 86 1010.4
20260506115941 14 209 9.7 20.9 0.00 0.00 0.00 87 1010.6
20260506115439 14 190 14.5 22.5 0.00 0.00 0.00 87 1010.7
20260506114937 14 235 9.7 12.9 0.00 0.00 0.00 87 1010.6
20260506114434 14 166 6.4 9.7 0.00 0.00 0.00 87 1010.6
20260506113932 13 179 8.0 11.3 0.00 0.00 0.00 88 1010.3
20260506113430 13 256 8.0 12.9 0.00 0.00 0.00 88 1010.3
20260506112926 13 266 6.4 9.7 0.00 0.00 0.00 88 1010.3
20260506112424 13 183 12.9 14.5 0.00 0.00 0.00 88 1010.1
20260506111921 13 153 6.4 11.3 0.00 0.00 0.00 89 1010.5
20260506111419 13 169 8.0 12.9 0.00 0.00 0.00 90 1010.4
20260506110916 13 212 9.7 17.7 0.00 0.00 0.00 90 1010.4
20260506110414 13 273 6.4 9.7 0.00 0.00 0.00 91 1010.5
20260506105910 13 142 8.0 17.7 0.00 0.00 0.00 91 1010.6
20260506105406 12 200 6.4 11.3 0.00 0.00 0.00 91 1010.5
20260506104904 12 197 9.7 14.5 0.00 0.00 0.00 91 1010.4
20260506104401 13 199 8.0 9.7 0.00 0.00 0.00 91 1010.3
20260506103859 13 232 9.7 22.5 0.00 0.00 0.00 91 1010.2
20260506103356 12 216 9.7 12.9 0.00 0.00 0.00 92 1010.3
20260506102853 12 203 6.4 11.3 0.00 0.00 0.00 92 1010.2
20260506102352 12 155 3.2 4.8 0.00 0.00 0.00 92 1010.3
20260506101848 12 237 9.7 12.9 0.00 0.00 0.00 92 1010.0
20260506101344 12 236 3.2 4.8 0.00 0.00 0.00 92 1010.2
20260506100842 12 177 4.8 6.4 0.00 0.00 0.00 92 1010.1
20260506100340 12 249 4.8 6.4 0.00 0.00 0.00 92 1010.1
20260506095838 12 212 11.3 17.7 0.00 0.00 0.00 92 1010.1
20260506095335 12 197 8.0 12.9 0.00 0.00 0.00 92 1010.1
20260506094832 12 106 3.2 3.2 0.00 0.00 0.00 92 1010.0
20260506094331 12 350 4.8 9.7 0.00 0.00 0.00 92 1010.1
20260506093829 12 250 8.0 16.1 0.00 0.00 0.00 92 1010.2
20260506093326 12 224 3.2 3.2 0.00 0.00 0.00 92 1010.1
20260506092823 12 100 8.0 11.3 0.00 0.00 0.00 92 1010.2
20260506092321 12 199 8.0 12.9 0.00 0.00 0.00 91 1010.2
20260506091818 12 180 6.4 12.9 0.00 0.00 0.00 91 1010.3
20260506091315 12 175 11.3 14.5 0.00 0.00 0.00 91 1010.2
20260506090813 12 179 4.8 9.7 0.00 0.00 0.00 91 1010.3
20260506090310 12 243 12.9 20.9 0.00 0.00 0.00 91 1010.4
20260506085807 12 262 6.4 9.7 0.00 0.00 0.00 91 1010.6
20260506085305 12 155 12.9 16.1 0.00 0.00 0.00 91 1010.3
20260506084759 12 358 3.2 9.7 0.00 0.00 0.00 91 1010.4
20260506084256 12 221 9.7 17.7 0.00 0.00 0.00 91 1010.5
20260506083753 12 183 11.3 20.9 0.00 0.00 0.00 91 1010.6
20260506083251 12 224 3.2 4.8 0.00 0.00 0.00 90 1010.6
20260506082748 12 178 4.8 12.9 0.00 0.00 0.00 90 1010.3
20260506082243 12 178 4.8 12.9 0.00 0.00 0.00 90 1010.3
20260506081741 12 172 9.7 11.3 0.00 0.00 0.00 90 1010.6
20260506081238 12 187 6.4 9.7 0.00 0.00 0.00 90 1010.4
20260506080737 12 212 3.2 3.2 0.00 0.00 0.00 90 1010.3
20260506080232 12 225 6.4 9.7 0.00 0.00 0.00 90 1010.5
20260506073217 13 207 9.7 12.9 0.00 0.00 0.00 89 1010.8
20260506072713 13 246 6.4 9.7 0.00 0.00 0.00 89 1011.0
20260506072211 13 218 8.0 9.7 0.00 0.00 0.00 89 1010.9
20260506071708 13 145 9.7 14.5 0.00 0.00 0.00 89 1010.8
20260506071206 13 299 3.2 4.8 0.00 0.00 0.00 88 1011.0
20260506070703 13 202 6.4 12.9 0.00 0.00 0.00 88 1010.9
20260506070200 13 344 6.4 9.7 0.00 0.00 0.00 88 1011.0
20260506062137 13 174 9.7 14.5 0.00 0.00 0.00 87 1010.7
20260506061633 13 134 6.4 9.7 0.00 0.00 0.00 87 1010.6
20260506061131 13 234 8.0 14.5 0.00 0.00 0.00 87 1010.9
20260506060629 13 201 6.4 12.9 0.00 0.00 0.00 87 1010.8
20260506060125 13 333 9.7 16.1 0.00 0.00 0.00 87 1010.8
20260506051057 13 170 9.7 11.3 0.00 0.00 0.00 85 1011.2
20260506050555 13 230 12.9 16.1 0.00 0.00 0.00 85 1010.8
20260506045046 13 171 8.0 12.9 0.00 0.00 0.00 85 1011.0
20260506044544 13 268 8.0 11.3 0.00 0.00 0.00 85 1011.1
20260506044040 13 195 8.0 9.7 0.00 0.00 0.00 84 1011.1
20260506043537 13 200 11.3 14.5 0.00 0.00 0.00 85 1011.2
20260506043036 13 230 11.3 17.7 0.00 0.00 0.00 84 1011.2
20260506042534 13 232 9.7 17.7 0.00 0.00 0.00 84 1011.1
20260506042032 13 226 12.9 16.1 0.00 0.00 0.00 84 1011.1
20260506041531 13 226 8.0 14.5 0.00 0.00 0.00 84 1011.2
20260506041027 13 173 16.1 22.5 0.00 0.00 0.00 84 1011.2
20260506040525 13 240 9.7 17.7 0.00 0.00 0.00 83 1011.2
20260506040020 13 180 11.3 17.7 0.00 0.00 0.00 83 1011.1
20260506035518 13 180 11.3 17.7 0.00 0.00 0.00 83 1011.1
20260506035014 13 172 6.4 9.7 0.00 0.00 0.00 83 1011.0
20260506034512 14 212 9.7 12.9 0.00 0.00 0.00 82 1011.0
20260506034009 14 194 14.5 20.9 0.00 0.00 0.00 82 1010.9
20260506033506 14 202 4.8 4.8 0.00 0.00 0.00 82 1011.1
20260506033003 14 165 6.4 14.5 0.00 0.00 0.00 82 1011.2
20260506032500 14 112 6.4 6.4 0.00 0.00 0.00 82 1011.0
20260506031956 14 222 6.4 12.9 0.00 0.00 0.00 82 1011.0
20260506031454 14 202 11.3 22.5 0.00 0.00 0.00 82 1010.9
20260506030951 14 200 8.0 11.3 0.00 0.00 0.00 82 1011.1
20260506030449 14 161 14.5 17.7 0.00 0.00 0.00 82 1011.2
20260506025946 14 163 6.4 11.3 0.00 0.00 0.00 82 1011.1
20260506025443 14 220 9.7 16.1 0.00 0.00 0.00 82 1011.3
20260506024939 14 237 9.7 16.1 0.00 0.00 0.00 82 1011.1
20260506024436 14 180 9.7 17.7 0.00 0.00 0.00 82 1011.2
20260506023932 15 209 6.4 9.7 0.00 0.00 0.00 82 1011.2
20260506023429 14 245 3.2 3.2 0.00 0.00 0.00 82 1011.1
20260506022926 14 206 8.0 11.3 0.00 0.00 0.00 82 1011.3
20260506022424 14 220 4.8 9.7 0.00 0.00 0.00 82 1011.1
20260506021921 14 202 11.3 14.5 0.00 0.00 0.00 82 1011.1
20260506021418 14 237 9.7 12.9 0.00 0.00 0.00 82 1011.2
20260506020915 14 300 6.4 11.3 0.00 0.00 0.00 82 1011.2
20260506020413 14 76 9.7 12.9 0.00 0.00 0.00 81 1011.1
20260506015910 15 270 8.0 11.3 0.00 0.00 0.00 81 1011.1
20260506015408 15 288 12.9 17.7 0.00 0.00 0.00 80 1010.9
20260506014904 15 264 8.0 12.9 0.00 0.00 0.00 80 1011.0
20260506014401 15 256 11.3 14.5 0.00 0.00 0.00 80 1011.0
20260506013858 15 201 11.3 16.1 0.00 0.00 0.00 79 1010.9
20260506013356 15 173 11.3 20.9 0.00 0.00 0.00 79 1010.8
20260506012851 15 219 14.5 20.9 0.00 0.00 0.00 79 1010.9
20260506012348 15 198 11.3 16.1 0.00 0.00 0.00 79 1010.8
20260506011845 15 161 9.7 16.1 0.00 0.00 0.00 78 1010.8
20260506011342 15 231 14.5 20.9 0.00 0.00 0.00 78 1010.6
20260506010840 15 79 3.2 4.8 0.00 0.00 0.00 77 1010.8
20260506010338 15 216 12.9 20.9 0.00 0.00 0.00 77 1010.7
20260506005834 15 146 11.3 16.1 0.00 0.00 0.00 77 1010.6
20260506005331 15 246 9.7 12.9 0.00 0.00 0.00 77 1010.7
20260506004827 15 247 6.4 12.9 0.00 0.00 0.00 77 1010.4
20260506004325 15 200 8.0 9.7 0.00 0.00 0.00 76 1010.4
20260506003821 15 184 8.0 12.9 0.00 0.00 0.00 76 1010.4
20260506003317 15 188 6.4 12.9 0.00 0.00 0.00 75 1010.4
20260506002814 16 153 6.4 9.7 0.00 0.00 0.00 75 1010.3
20260506002310 15 201 6.4 9.7 0.00 0.00 0.00 75 1010.3
20260506001806 15 152 6.4 11.3 0.00 0.00 0.00 76 1010.2
20260506001303 15 127 8.0 14.5 0.00 0.00 0.00 76 1010.1
20260506000800 15 174 11.3 16.1 0.00 0.00 0.00 76 1010.0
20260506000258 15 276 6.4 9.7 0.00 0.00 0.00 76 1009.9
20260505235754 15 237 3.2 4.8 0.00 0.00 0.00 75 1009.8
20260505235252 15 193 6.4 9.7 0.00 0.00 0.00 75 1009.7
20260505234749 15 187 11.3 16.1 0.00 0.00 0.00 75 1009.5
20260505234246 15 178 6.4 11.3 0.00 0.00 0.00 75 1009.5
20260505233743 16 250 14.5 16.1 0.00 0.00 0.00 75 1009.4
20260505233241 15 191 14.5 17.7 0.00 0.00 0.00 75 1009.2
20260505232738 15 84 8.0 17.7 0.00 0.00 0.00 75 1009.3
20260505232235 15 209 8.0 17.7 0.00 0.00 0.00 75 1009.2
20260505231732 15 116 12.9 17.7 0.00 0.00 0.00 75 1009.1
20260505231231 15 225 12.9 20.9 0.00 0.00 0.00 75 1009.2
20260505230729 15 180 8.0 12.9 0.00 0.00 0.00 75 1009.1
20260505230225 15 105 9.7 14.5 0.00 0.00 0.00 75 1009.2
20260505225722 16 228 12.9 24.1 0.00 0.00 0.00 75 1009.1
20260505225219 16 176 8.0 11.3 0.00 0.00 0.00 74 1009.0
20260505224714 16 183 12.9 17.7 0.00 0.00 0.00 75 1009.2
20260505224212 16 182 14.5 27.4 0.00 0.00 0.00 75 1008.8
20260505223709 16 146 11.3 16.1 0.00 0.00 0.00 75 1009.0
20260505223205 16 168 11.3 14.5 0.00 0.00 0.00 75 1008.8
20260505222701 16 237 8.0 9.7 0.00 0.00 0.00 75 1009.0
20260505222157 16 174 12.9 22.5 0.00 0.00 0.00 74 1009.0
20260505221655 16 210 9.7 14.5 0.00 0.00 0.00 74 1008.9
20260505221151 16 195 11.3 17.7 0.00 0.00 0.00 73 1008.8
20260505220649 16 107 6.4 9.7 0.00 0.00 0.00 73 1008.9
20260505220146 16 167 12.9 22.5 0.00 0.00 0.00 72 1008.9
20260505215644 16 145 9.7 12.9 0.00 0.00 0.00 71 1008.8
20260505215142 16 197 9.7 16.1 0.00 0.00 0.00 72 1008.6
20260505214639 16 215 9.7 14.5 0.00 0.00 0.00 73 1008.8
20260505214136 16 202 17.7 25.7 0.00 0.00 0.00 72 1008.7
20260505213634 16 214 9.7 16.1 0.00 0.00 0.00 72 1008.6
20260505213130 16 186 6.4 9.7 0.00 0.00 0.00 72 1008.6
20260505212626 16 146 8.0 9.7 0.00 0.00 0.00 72 1008.5
20260505212124 17 152 17.7 29.0 0.00 0.00 0.00 71 1008.4
20260505211621 17 132 11.3 17.7 0.00 0.00 0.00 71 1008.4
20260505211118 16 232 4.8 9.7 0.00 0.00 0.00 72 1008.6
20260505210614 16 185 16.1 22.5 0.00 0.00 0.00 73 1008.5
20260505210111 16 185 11.3 16.1 0.00 0.00 0.00 74 1008.4
20260505205609 16 135 16.1 22.5 0.00 0.00 0.00 72 1008.3
20260505205107 16 233 11.3 14.5 0.00 0.00 0.00 73 1008.4
20260505204604 16 166 17.7 27.4 0.00 0.00 0.00 73 1008.4
20260505204101 16 133 11.3 20.9 0.00 0.00 0.00 74 1008.3
20260505203557 16 134 8.0 11.3 0.00 0.00 0.00 73 1008.4
20260505203055 16 215 12.9 17.7 0.00 0.00 0.00 73 1008.5
20260505202550 16 254 11.3 16.1 0.00 0.00 0.00 74 1008.3
20260505202047 16 177 14.5 17.7 0.00 0.00 0.00 74 1008.8
20260505201543 16 149 4.8 6.4 0.00 0.00 0.00 73 1008.5
20260505201041 16 171 9.7 17.7 0.00 0.00 0.00 73 1008.5
20260505200539 17 216 19.3 29.0 0.00 0.00 0.00 73 1008.6
20260505200036 17 263 8.0 11.3 0.00 0.00 0.00 73 1008.7
20260505195531 16 127 9.7 14.5 0.00 0.00 0.00 74 1008.7
20260505195029 16 229 12.9 22.5 0.00 0.00 0.00 73 1008.9
20260505194526 17 262 6.4 9.7 0.00 0.00 0.00 73 1009.0
20260505194021 17 252 8.0 16.1 0.00 0.00 0.00 72 1008.9
20260505193519 17 180 4.8 9.7 0.00 0.00 0.00 72 1009.0
20260505193016 17 210 9.7 14.5 0.00 0.00 0.00 72 1009.0
20260505192515 17 130 6.4 6.4 0.00 0.00 0.00 73 1009.3
20260505192012 17 52 4.8 6.4 0.00 0.00 0.00 74 1009.4
20260505191510 17 162 8.0 11.3 0.00 0.00 0.00 71 1009.4
20260505191008 17 131 11.3 14.5 0.00 0.00 0.00 72 1009.5
20260505190502 17 219 1.6 3.2 0.00 0.00 0.00 74 1009.6
20260505185958 17 239 11.3 14.5 0.00 0.00 0.00 73 1009.6
20260505185456 17 175 12.9 14.5 0.00 0.00 0.00 73 1009.9
20260505184951 17 167 8.0 11.3 0.00 0.00 0.00 74 1009.9
20260505184448 16 181 12.9 16.1 0.00 0.00 0.00 74 1010.0
20260505183945 16 188 9.7 12.9 0.00 0.00 0.00 74 1010.1
20260505183442 17 225 12.9 16.1 0.00 0.00 0.00 72 1010.2
20260505182938 17 226 1.6 4.8 0.00 0.00 0.00 74 1010.4
20260505182436 17 70 6.4 9.7 0.00 0.00 0.00 73 1010.4
20260505181932 17 271 6.4 12.9 0.00 0.00 0.00 73 1010.7
20260505181430 17 209 6.4 11.3 0.00 0.00 0.00 73 1010.7
20260505180926 17 201 8.0 11.3 0.00 0.00 0.00 73 1010.6
20260505180422 17 210 3.2 3.2 0.00 0.00 0.00 74 1010.7
20260505175919 17 190 6.4 6.4 0.00 0.00 0.00 72 1010.7
20260505175415 17 256 3.2 6.4 0.00 0.00 0.00 73 1010.8
20260505174912 17 215 3.2 4.8 0.00 0.00 0.00 74 1010.9
20260505174410 17 268 9.7 12.9 0.00 0.00 0.00 74 1011.1
20260505173906 17 231 6.4 9.7 0.00 0.00 0.00 74 1011.0
20260505173402 17 289 4.8 9.7 0.00 0.00 0.00 74 1010.9
20260505172859 17 245 9.7 12.9 0.00 0.00 0.00 73 1010.8
20260505172357 17 186 6.4 11.3 0.00 0.00 0.00 73 1010.9
20260505171856 16 177 8.0 9.7 0.00 0.00 0.00 76 1010.8
20260505171353 16 174 3.2 4.8 0.00 0.00 0.00 77 1011.0
20260505170850 16 180 6.4 9.7 0.00 0.00 0.00 77 1010.9
20260505170347 16 254 9.7 11.3 0.00 0.00 0.00 75 1011.0
20260505165842 17 134 6.4 9.7 0.00 0.00 0.00 73 1011.1
20260505165338 16 253 1.6 3.2 0.00 0.00 0.00 77 1011.2
20260505164834 16 96 0.0 1.6 0.00 0.00 0.00 77 1011.2
20260505164331 16 231 8.0 11.3 0.00 0.00 0.00 76 1011.4
20260505163829 17 192 11.3 14.5 0.00 0.00 0.00 74 1011.3
20260505163328 17 47 6.4 9.7 0.00 0.00 0.00 73 1011.1
20260505162826 17 151 1.6 3.2 0.00 0.00 0.00 75 1011.2
20260505162321 17 197 6.4 9.7 0.00 0.00 0.00 72 1011.2
20260505161819 18 113 4.8 9.7 0.00 0.00 0.00 71 1011.4
20260505161316 18 249 1.6 4.8 0.00 0.00 0.00 72 1011.3
20260505160813 18 232 3.2 4.8 0.00 0.00 0.00 73 1011.5
20260505160311 17 210 3.2 4.8 0.00 0.00 0.00 74 1011.3
20260505153250 17 213 3.2 4.8 0.00 0.00 0.00 73 1011.4
20260505152747 17 56 3.2 3.2 0.00 0.00 0.00 75 1011.5
20260505152243 16 229 6.4 9.7 0.00 0.00 0.00 76 1011.7
20260505151737 16 146 6.4 9.7 0.00 0.00 0.00 75 1011.7
20260505151235 16 146 3.2 6.4 0.00 0.00 0.00 76 1011.8
20260505150732 16 167 3.2 6.4 0.00 0.00 0.00 76 1012.1
20260505150230 16 267 9.7 12.9 0.00 0.00 0.00 75 1012.0